weather.gov     
National Weather Service

Regional Weather Roundup
NWS Homepage
This page is being discontinued on March 12, 2014.
The same data is available at this site. Please update your bookmarks.
Thank you, and we apologize for the inconvenience.
Please send an email to SR-SRH.Webmaster@noaa.gov with any concerns.


Current Version
Previous Version:    01  02  03  04  05  06  07  08  09  10  11  12  13  14  15  16  17  18  19  20  21  22  23  24  25  26  
[Printable]
630
ASUS41 KALY 230510
RWRALY

NEW YORK STATE HOURLY WEATHER ROUNDUP
NATIONAL WEATHER SERVICE ALBANY NY
100 AM EDT THU OCT 23 2014

NOTE: "FAIR" INDICATES FEW OR NO CLOUDS BELOW 12,000 FEET WITH NO
SIGNIFICANT WEATHER AND/OR NO OBSTRUCTIONS TO VISIBILITY.

NYZ032-033-038>043-046>054-057>066-NYZ062>081-230600-
EAST


CITY           SKY/WX    TMP DP  RH WIND       PRES   REMARKS
ALBANY         LGT RAIN  52  42  69 N14G23    29.92S
GLENS FALLS    CLOUDY    52  41  66 N16G25    29.95F
POUGHKEEPSIE   HVY RAIN  50  46  86 N14G22    29.83R FOG
NEWBURGH       CLOUDY    50  48  93 NE21G32   29.82S
MONTGOMERY     CLOUDY    50  46  86 NE17G29   29.81S
WHITE PLAINS   MOCLDY    51  45  79 N14G26    29.72S
ISLIP          CLOUDY    53  48  83 N28G38    29.65F
NEW YORK CITY  CLOUDY    54  46  76 N16G24    29.72F
CENTRAL PARK   CLOUDY    51  47  86 NE12G25   29.75F
$$

NYZ005>009-017-018-044>046-055-056-230600-
CENTRAL


CITY           SKY/WX    TMP DP  RH WIND       PRES   REMARKS
FULTON         PTCLDY    48  38  68 N13G21    30.06F
SYRACUSE       MOCLDY    46  41  82 W6        30.04F
ROME           CLOUDY    47  39  74 N9        30.01F
ELMIRA         CLOUDY    49  42  77 N12G24    30.02F
BINGHAMTON     CLOUDY    43  41  93 N16       29.96F
MONTICELLO     CLOUDY    45  45 100 N10G20    29.85F
$$

NYZ026>034-041>043-230600-
NORTH


CITY           SKY/WX    TMP DP  RH WIND       PRES   REMARKS
WATERTOWN      PTCLDY    47  34  60 NE13      30.10F
FORT DRUM      NOT AVBL
MASSENA        PTCLDY    44  35  70 NE16      30.17F
SARANAC LAKE   CLOUDY    42  37  82 NE6       30.06S
PLATTSBURGH    CLOUDY    46  36  68 N17G28    30.10F
$$

NYZ001>004-010>016-019>021-230600-
WEST


CITY           SKY/WX    TMP DP  RH WIND       PRES   REMARKS
NIAGARA FALLS  MOCLDY    45  41  86 N7        30.17F
BUFFALO        PTCLDY    44  41  89 N7        30.17F
DUNKIRK        CLOUDY    49  43  80 NE9       30.17F
JAMESTOWN      CLOUDY    43  39  87 N8        30.14F
WELLSVILLE     CLOUDY    43  40  89 N7        30.09F
ROCHESTER      PTCLDY    49  40  71 N14       30.13F
PENN YAN       CLEAR     48  41  76 VRB7      30.07F
$$

             KEY
       WCI = WIND CHILL INDEX
       VSB = VISIBILITY
       HX  = HEAT INDEX
$$




U.S. Dept. of Commerce
NOAA National Weather Service
1325 East West Highway
Silver Spring, MD 20910
E-mail: w-nws.webmaster@noaa.gov
Page last modified: May 16, 2007
NATIONAL WEATHER SERVICE: for Safety, for Work, for Fun - FOR LIFE